Hourly Data Report for September 17, 2020

SHEARWATER RCS
NOVA SCOTIA
Current Station Operator: ECCC - MSC

44°37'47.000" N
63°30'48.000" W
24.00 m
8205092
71264
AAW

Download Data

Hourly Data (September 2020)
Hourly Data Report for September 17, 2020
TIME Temp Definition
°C
Dew Point Definition
°C
Rel Hum Definition
%
Wind Dir Definition
10's deg

Wind Spd Definition
km/h
Visibility Definition
km
Stn Press Definition
kPa
Hmdx Definition


Wind Chill Definition


Weather Definition


00:00 15.9 11.3 74 20 18   101.68     LegendNANA
01:00 16.3 12.3 78 21 23   101.62     LegendNANA
02:00 16.5 12.9 80 22 23   101.60     LegendNANA
03:00 16.1 12.9 81 22 18   101.56     LegendNANA
04:00 16.5 12.8 79 22 25   101.49     LegendNANA
05:00 16.4 12.7 79 22 20   101.53     LegendNANA
06:00 16.5 13.0 80 22 22   101.55     LegendNANA
07:00 16.9 13.5 80 21 20   101.52     LegendNANA
08:00 17.7 14.0 78 22 21   101.53     LegendNANA
09:00 18.9 14.3 75 22 23   101.55     LegendNANA
10:00 19.8 14.8 73 21 20   101.54     LegendNANA
11:00 20.6 15.2 71 22 20   101.50 25   LegendNANA
12:00 21.3 15.3 69 21 20   101.45 25   LegendNANA
13:00 21.7 15.0 66 21 27   101.39 26   LegendNANA
14:00 21.9 14.9 64 21 26   101.36 26   LegendNANA
15:00 21.6 14.6 65 21 27   101.31 25   LegendNANA
16:00 20.7 14.9 69 21 20   101.28 25   LegendNANA
17:00 19.8 15.8 77 20 16   101.29     LegendNANA
18:00 18.2 15.7 86 20 15   101.31     LegendNANA
19:00 17.8 15.7 88 22 12   101.32     LegendNANA
20:00 17.1 15.6 91 21 8   101.38     LegendNANA
21:00 16.6 15.5 93 26 5   101.39     LegendNANA
22:00 16.1 14.7 91 27 2   101.38     LegendNANA
23:00 15.3 14.2 93 34 2   101.35     LegendNANA

Notes on Data Quality.

Legend

  • E = Estimated
  • M = Missing
  • NA = Not Available*
  • [empty] = Indicates an unobserved value
Date modified: